Regional Weather Roundup
Issued by NWS Wilmington, NC

Home | Current Version | Previous Version | Text Only | Print | Product List | Glossary On
Versions: 1 2 3 4 5 6 7 8 9 10 11 12 13 14 15 16 17 18 19 20 21 22 23 24 25 26 27 28 29 30 31 32 33 34 35 36 37 38 39 40 41 42 43 44 45 46 47 48 49 50
000
ASUS42 KILM 020710
RWRILM
RWRILM
REGIONAL HOURLY WEATHER ROUNDUP
NATIONAL WEATHER SERVICE WILMINGTON NC
300 AM EDT TUE SEP 02 2014

NOTE: "FAIR" INDICATES FEW OR NO CLOUDS BELOW 12,000 FEET WITH NO
SIGNIFICANT WEATHER AND/OR OBSTRUCTIONS TO VISIBILITY.

...............WFO WILMINGTON COUNTY WARNING AREA...............

......COASTAL NC AND SC COUNTIES......

CITY           SKY/WX    TMP DP  RH WIND       PRES   REMARKS
WILMINGTON     PTCLDY    78  76  93 SW3       30.07S
SOUTHPORT      PTCLDY    80  75  84 SW6       30.07F
N MYRTLE BEACH PTCLDY    81  77  88 SW6       30.07F
MYRTLE BEACH   CLEAR     81  75  83 SW6       30.07F

......INLAND NC AND SC COUNTIES.......

CITY           SKY/WX    TMP DP  RH WIND       PRES   REMARKS
LUMBERTON      PTCLDY    77  75  93 SW5       30.06F
ELIZABETHTOWN  CLEAR     77  76  96 S3        30.07F
WHITEVILLE     PTCLDY    76  74  93 CALM      30.07S
FLORENCE       PTCLDY    76  73  91 SW6       30.07F
DARLINGTON     PTCLDY    73  70  88 S5        30.07F

....................REST OF NORTH CAROLINA......................

.........EASTERN NC.........

CITY           SKY/WX    TMP DP  RH WIND       PRES   REMARKS
CAPE HATTERAS  PTCLDY    79  77  94 W13G20    30.05F
JACKSONVILLE   CLEAR     75  72  88 SW6       30.07F
MOREHEAD CITY  PTCLDY    81  76  84 SW12      30.07S
KENANSVILLE    CLEAR     75  74  94 CALM      30.07F
NEW BERN       CLEAR     77  74  90 SW5       30.08R
ELIZABETH CITY PTCLDY    78  74  87 SW8       30.03S

.........CENTRAL NC.........

CITY           SKY/WX    TMP DP  RH WIND       PRES   REMARKS
RALEIGH DURHAM PTCLDY    76  71  85 SW8       30.05F
ROCKY MOUNT    CLEAR     77  74  90 SW7       30.04F
ROANOKE RAPIDS NOT AVBL
FAYETTEVILLE   PTCLDY    78  74  87 SW7       30.06S
HOFFMAN        PTCLDY    75  72  91 S2        30.08S

.........WESTERN NC.........

CITY           SKY/WX    TMP DP  RH WIND       PRES   REMARKS
CHARLOTTE      PTCLDY    74  67  78 CALM      30.08S
GREENSBORO     PTCLDY    74  68  81 S3        30.06F
HICKORY        NOT AVBL
BOONE          NOT AVBL
ASHEVILLE      NOT AVBL

.....................REST OF SOUTH CAROLINA.....................

.........EASTERN SC.........

CITY           SKY/WX    TMP DP  RH WIND       PRES   REMARKS
CHARLESTON     CLEAR     79  76  90 S3        30.08F
BEAUFORT MCAS  CLEAR     80  77  90 CALM      30.07F
HILTON HEAD    NOT AVBL

.........CENTRAL SC.........

CITY           SKY/WX    TMP DP  RH WIND       PRES   REMARKS
COLUMBIA       MOCLDY    78  71  79 CALM      30.06F
ORANGEBURG     PTCLDY    76  73  91 S6        30.07F
SUMTER SHAW    PTCLDY    76  75  96 SW5       30.06F

.........WESTERN SC.........

CITY           SKY/WX    TMP DP  RH WIND       PRES   REMARKS
GREENVILLE     NOT AVBL
ROCK HILL      CLEAR     70  68  93 SW7       30.08F
ANDERSON       CLEAR     73  70  90 NW3       30.09F
CLEMSON        NOT AVBL
GREENWOOD      MOCLDY    74  69  85 SW5       30.09F


...................COASTAL AND OFFSHORE REPORTS..................

................LOCAL PIERS AND NC RESERVE................


STATION/POSITION TIME  SKY/WX   TEMP    WIND        PRES    VSBY
                                AIR SEA DIR/SP/G
                 (UTC)          (F)     (DEG/KT/KT) (MB)    (MI)
JOHNY MRCER PIER 0700            80 83  220/ 10/ 11 1017.5F
NC RESRV MASNBRO 0600            79     220/  4     1018.0S
OCEAN CREST PIER 0700            82 85  190/ 15/ 17 1017.1F
SPRINGMAID  PIER 0700            82 84  210/ 12/ 15 1018.1F


................COASTAL AND OFFSHORE BUOYS................


STATION/POSITION TIME  SKY/WX   TEMP    WIND        PRES    VSBY
                                AIR SEA DIR/SP/G
                 (UTC)          (F)     (DEG/KT/KT) (MB)    (MI)
DIMNDSHOAL 41025 0700            81     230/ 17/ 19 1017.6F
WVE H/P(F/S)=  4/ 4 WND WVE H/P(F/S)=  3/ 4 SWL H/P/D(F/S/D)=  2/110/ 9

CAPE LOOKOUT     0600            81     230/  9/ 12 1018.4F
ONSLOW BAY 41036 0700            82 82  220/ 14/ 16 1018.4F
WVE H/P(F/S)=  3/11 WND WVE H/P(F/S)=  2/ 4 SWL H/P/D(F/S/D)=  2/ 90/11

5 WRITEBCH 41038 0600            79 83  220/ 16/ 17   N/A
MASONBORO  41110 0700               83                N/A
WVE H/P(F/S)=  3/ 8 WND WVE H/P(F/S)=  2/ 8

WILM HARBR 41108 0700               83                N/A
WVE H/P(F/S)=  2/ 9 WND WVE H/P(F/S)=  2/ 9

27WRITEBCH 41037 NOT AVBL
FRYING PAN 41013 NOT AVBL
SUNST NRSH 41024 0600            83     230/ 12/ 16 1018.2F
CAPRS NRSH 41029 0600            83     220/ 10/ 12   N/A
EDISTO     41004 0700            83 83  210/ 10/ 10 1018.4F
WVE H/P(F/S)=  3/ 9 WND WVE H/P(F/S)=  2/ 3 SWL H/P/D(F/S/D)=  2/ 9



..........OFFSHORE BUOYS BEYOND 100 NM OFFSHORE...........
.....IN A TRIANGLE---HAT TO BERMUDA TO BAHAMAS TO HAT.....


STATION/POSITION TIME  SKY/WX   TEMP    WIND        PRES    VSBY
                                AIR SEA DIR/SP/G
                 (UTC)          (F)     (DEG/KT/KT) (MB)    (MI)
150E HAT   41001 NOT AVBL
W BERMUDA  41048 0622            78 79   CALM  /  2 1020.5S
WVE H/P(F/S)=  4/11 SWL H/P/D(F/S/D)=  3/ 40/11

ATLANTIC S 41049 0630            84 85   90/  6/  8 1019.3F
WVE H/P(F/S)=  5/11 WND WVE H/P(F/S)=  2/ 4 SWL H/P/D(F/S/D)=  5/ 40/11

E BAHAMAS  41046 0641            83 84  120/ 10/ 12 1016.8F
WVE H/P(F/S)=  4/ 9 WND WVE H/P(F/S)=  2/ 5 SWL H/P/D(F/S/D)=  3/ 30/ 9

NE BAHAMAS 41047 0558            81 84   90/  8/ 10 1019.5F
WVE H/P(F/S)=  4/ 9 WND WVE H/P(F/S)=  2/ 4 SWL H/P/D(F/S/D)=  3/ 70/ 9

120E CANVRL41010 0700            82 84  160/  6/  8 1018.9F
WVE H/P(F/S)=  3/ 9 SWL H/P/D(F/S/D)=  3/ 80/ 9


END


USA.gov is the U.S. government's official web portal to all federal, state and local government web resources and services.